This demonstration page uses our WeatherBlox Daily Observations layout. Learn more.

Hourly Observations for February 15, 2019

Temp ( °F °C ) Dew Point ( °F °C ) Humidity (%) Winds ( mph kmh ) Pressure ( in mb ) Visibility ( mi km ) Precip ( " mm )
12:54 am 00:54 Cloudy 10 -12.2 0 -17.8 63 63 N 15 24 30.18 1022 10 16.0934 0 0
1:54 am 01:54 Mostly Cloudy 10 -12.2 0 -17.8 63 63 N 14 22 30.15 1021 10 16.0934 0 0
2:54 am 02:54 Cloudy 10 -12.2 0 -17.8 63 63 NNE 12 19 30.16 1021 10 16.0934 0 0
3:54 am 03:54 Cloudy 10 -12.2 0 -17.8 63 63 N 10 17 30.14 1021 10 16.0934 0 0
4:54 am 04:54 Cloudy 10 -12.2 -1 -18.3 61 61 N 13 20 30.14 1021 10 16.0934 0 0
5:54 am 05:54 Cloudy 10 -12.2 0 -17.8 63 63 N 9 15 30.16 1022 10 16.0934 0 0
6:54 am 06:54 Cloudy 10 -12.2 0 -17.8 63 63 NNE 13 20 30.14 1021 10 16.0934 0 0
7:54 am 07:54 Cloudy 10 -12.2 0 -17.8 63 63 NNE 10 17 30.16 1021 10 16.0934 0 0
8:20 am 08:20 Cloudy with Light Snow 10 -12.2 1 -17.2 67 67 NNE 8 13 30.23 1024 2.5 4.02335 0 0.0254
8:28 am 08:28 Cloudy with Light Snow 10 -12.2 1 -17.2 67 67 NNE 10 17 30.24 1024 4 6.43736 0 0.0254
8:49 am 08:49 Cloudy with Light Snow 9 -13 1 -17 72 72 NNE 9 15 30.25 1024 1.75 2.816345 0 0.0254
8:54 am 08:54 Cloudy with Light Snow 9 -12.8 2 -16.7 73 73 NNE 10 17 30.19 1022 1 1.60934 0 0.0254
9:01 am 09:01 Mostly Cloudy with Snow 9 -12.8 3 -16.1 77 77 NNE 9 15 30.25 1024 0.5 0.80467 0 0.0254
9:08 am 09:08 Mostly Cloudy with Snow 9 -12.8 3 -16.1 77 77 NE 10 17 30.26 1025 0.5 0.80467 0.01 0.254
9:16 am 09:16 Mostly Cloudy with Snow 9 -12.8 3 -16.1 77 77 NE 10 17 30.26 1025 0.5 0.80467 0.01 0.254
9:54 am 09:54 Mostly Cloudy with Snow 9 -12.8 5 -15 84 84 N 10 17 30.22 1024 0.5 0.80467 0.06 1.524
10:24 am 10:24 Mostly Cloudy with Snow 9 -12.8 5 -15 84 84 N 10 17 30.3 1026 0.5 0.80467 0.03 0.762
10:29 am 10:29 Mostly Cloudy with Heavy Snow 9 -12.8 5 -15 84 84 N 10 17 30.3 1026 0.25 0.402335 0.04 1.016
10:41 am 10:41 Mostly Cloudy with Snow 9 -12.8 5 -15 84 84 N 7 11 30.3 1026 0.5 0.80467 0.05 1.27
10:54 am 10:54 Mostly Cloudy with Snow 10 -12.2 5 -15 80 80 NNE 9 15 30.24 1024 0.5 0.80467 0.07 1.778
11:12 am 11:12 Mostly Cloudy with Scattered Snow Showers 10 -12.2 5 -15 80 80 N 8 13 30.29 1026 1 1.60934 0.01 0.254
11:35 am 11:35 Mostly Cloudy with Scattered Snow Showers 10 -12.2 5 -15 80 80 N 7 11 30.28 1026 0.75 1.207005 0.02 0.508
11:48 am 11:48 Mostly Cloudy with Scattered Snow Showers 10 -12 3 -16 72 72 NE 9 15 30.28 1025 1 1.60934 0.02 0.508
11:54 am 11:54 Cloudy with Light Snow 11 -11.7 5 -15 77 77 NNE 7 11 30.23 1024 1 1.60934 0.02 0.508
12:29 pm 12:29 Cloudy with Light Snow 12 -11.1 5 -15 73 73 N 10 17 30.26 1025 0.75 1.207005 0.02 0.508
12:38 pm 12:38 Cloudy with Light Snow 12 -11.1 5 -15 73 73 NNE 9 15 30.26 1025 1 1.60934 0.02 0.508
12:52 pm 12:52 Cloudy with Light Snow 12 -11 7 -14 79 79 NNE 10 17 30.25 1024 1.5 2.41401 0.03 0.762
12:54 pm 12:54 Cloudy with Light Snow 12 -11.1 6 -14.4 77 77 NNE 9 15 30.2 1023 1.75 2.816345 0.03 0.762
1:03 pm 13:03 Cloudy with Light Snow 13 -10.6 5 -15 70 70 NE 10 17 30.24 1024 2 3.21868 0 0.0254
1:12 pm 13:12 Cloudy with Light Snow 13 -10.6 6 -14.4 74 74 NE 9 15 30.24 1024 2 3.21868 0 0.0254
1:21 pm 13:21 Cloudy with Light Snow 12 -11.1 5 -15 73 73 N 10 17 30.25 1024 1.5 2.41401 0 0.0254
1:54 pm 13:54 Cloudy with Light Snow 12 -11.1 5 -15 73 73 NNE 10 17 30.19 1023 1.25 2.011675 0.01 0.254
2:14 pm 14:14 Cloudy with Light Snow 13 -10.6 6 -14.4 74 74 N 9 15 30.24 1024 3 4.82802 0 0.0254
2:24 pm 14:24 Cloudy with Light Snow 13 -10.6 5 -15 70 70 NNE 12 19 30.23 1024 8 12.87472 0 0.0254
2:54 pm 14:54 Cloudy with Light Snow 13 -10.6 6 -14.4 74 74 NNE 9 15 30.19 1022 7 11.26538 0 0.0254
3:54 pm 15:54 Cloudy with Light Snow 14 -10 7 -13.9 73 73 N 8 13 30.2 1023 6 9.65604 0 0.0254
4:54 pm 16:54 Cloudy with Light Snow 15 -9.4 7 -13.9 70 70 NE 7 11 30.2 1023 4 6.43736 0 0.0254
5:54 pm 17:54 Cloudy 14 -10 8 -13.3 77 77 N 7 11 30.2 1023 8 12.87472 0 0.0254
6:54 pm 18:54 Cloudy 13 -10.6 7 -13.9 77 77 NNE 6 9 30.21 1023 10 16.0934 0 0
7:54 pm 19:54 Partly Cloudy 10 -12.2 4 -15.6 76 76 N 6 9 30.23 1024 10 16.0934 0 0
8:54 pm 20:54 Cloudy 8 -13.3 4 -15.6 83 83 Calm 30.23 1024 10 16.0934 0 0
9:54 pm 21:54 Partly Cloudy 10 -12.2 5 -15 80 80 NNE 8 13 30.22 1024 10 16.0934 0 0
10:54 pm 22:54 Cloudy 12 -11.1 7 -13.9 80 80 Calm 30.25 1024 10 16.0934 0 0
11:54 pm 23:54 Mostly Cloudy 10 -12.2 6 -14.4 84 84 N 3 6 30.23 1024 10 16.0934 0 0

Powered by AerisWeather